Terminal Aerodrome Forecast
Issued by NWS

Home | Current Version | Previous Version | Text Only | Print | Product List | Glossary On
Versions: 1 2 3 4 5 6 7 8 9 10 11 12 13
202
FTUS43 KOAX 112350
TAFSNY
TAF
KSNY 112350Z 1200/1224 30010KT P6SM BKN120
     FM121400 32007KT P6SM OVC100=

USA.gov is the U.S. government's official web portal to all federal, state and local government web resources and services.